Location: Cheching
(60.0667°N, 164.2167°W)
Time: 01:49:48
(UTC+00:00)

DX 1 - Pass Details

Date: 02 February 2021
Orbit: 618 x 631 km, 98.5° (Epoch: 07 March)

Event Time Altitude Azimuth Distance (km) Brightness Sun altitude
Exits shadow 04:32:16 13° 74° (ENE) 1,787 ? -9.8°
Maximum altitude 04:32:54 14° 84° (E) 1,766 ? -9.9°
Drops below altitude 10° 04:35:05 10° 115° (ESE) 1,990 ? -10.1°
Sets 04:38:20 0° 141° (SE) 2,890 ? -10.5°
